Back to catalog

FREGAT DEB

AliveUNKNOWN
NORAD 46006·DEBRIS·🇷🇺 Russia

Launched Jul 18, 2011 from Baikonur Cosmodrome

Loading…

Next Passes (next 24 hours)

TLE

FreshSource: Space-Track

Epoch: Sep 14, 2026, 04:35 UTC

1 46006U 11037HH  26257.19107571  .00011190  00000-0  65397-3 0  9996
2 46006  51.3970 188.4528 1575418 141.3312 231.1679 12.21694127261716

Track FREGAT DEB in real time with AllMySat

Download on the App Store